STARLINK-32439

Last updated on Thu Nov 21 2024 00:02:04 GMT+0000 (Coordinated Universal Time)

1 61665U 24193E 24325.51729798 .00001784 00000+0 39240-4 0 9998 2 61665 53.1607 138.1125 0001219 101.6938 258.4208 15.49995058 3861
UTC large
Height (km)
Speed (km/s)
/
Latitude / Longitude
Inclination (degrees)
Orbital Period (minutes)
Azimuth
Elevation
Range (km)
Doppler Factor

Next 0 passes for location: London (51.5072 / 0.1276)

Sorry there are no passes over London.